Weather History for Clinton, AR

Change the Weather History Date:

Monday, January 27, 2014

  Actual Average (KFLP) Record (KFLP)
Temperature  
Mean Temperature 36 °F -  
Max Temperature 48 °F 46 °F 68 °F (2002)
Min Temperature 23 °F 26 °F 15 °F (2003)
Degree Days  
Heating Degree Days 30    
Moisture  
Dew Point 3 °F    
Average Humidity 33    
Maximum Humidity 93    
Minimum Humidity 21    
Precipitation  
Precipitation 0.00 in - - ()
Sea Level Pressure  
Sea Level Pressure 30.27 in    
Wind  
Wind Speed 7 mph (North)    
Max Wind Speed 16 mph    
Max Gust Speed 30 mph    
Visibility 10 miles    
Events      
Averages and records for this station are not official NWS values.
T = Trace of Precipitation, MM = Missing Value Source: NWS Daily Summary

Daily Weather History Graph

Daily Weather History Graph

Search for Another Location

Airport:

Trip Planner

Search our weather history database for the weather conditions in past years. The results will help you decide how hot, cold, wet, or windy it might be!

Date:

Astronomy

Jan. 27, 2014 Rise Set
Actual Time 7:13 AM CST 5:32 PM CST
Civil Twilight 6:46 AM CST 5:59 PM CST
Nautical Twilight 6:15 AM CST 6:30 PM CST
Astronomical Twilight 5:45 AM CST 7:00 PM CST
Moon 3:53 AM CST (1/27) 2:20 PM CST (1/27)
Length of Visible Light 11h 13m
Length of Day
10h 19m
Waning Crescent, 14% of the Moon is Illuminated
Jan 27
Waning Crescent
Jan 30
New
Feb 6
First Quarter
Feb 14
Full
Feb 22
Last Quarter

Hourly Weather History & Observations

Time (CST) Temp. Windchill Dew Point Humidity Pressure Visibility Wind Dir Wind Speed Gust Speed Precip Events Conditions
12:15 AM 32.0 °F - 30.2 °F 93% 29.86 in 10.0 mi Calm Calm - N/A   Clear
12:35 AM 32.0 °F - 30.2 °F 93% 29.87 in 10.0 mi Calm Calm - N/A   Clear
12:55 AM 48.2 °F - 30.2 °F 50% 29.89 in 10.0 mi NNW 11.5 mph 26.5 mph N/A   Clear
1:15 AM 46.4 °F 40.7 °F 28.4 °F 50% 29.93 in 10.0 mi NNW 12.7 mph 26.5 mph N/A   Clear
1:35 AM 44.6 °F 38.1 °F 26.6 °F 49% 29.94 in 10.0 mi NNW 13.8 mph 23.0 mph N/A   Clear
1:55 AM 42.8 °F 38.6 °F 21.2 °F 42% 29.96 in 10.0 mi NNW 6.9 mph 16.1 mph N/A   Clear
2:15 AM 42.8 °F 38.6 °F 19.4 °F 39% 29.98 in 10.0 mi North 6.9 mph 17.3 mph N/A   Clear
2:35 AM 41.0 °F 34.3 °F 19.4 °F 42% 29.99 in 10.0 mi North 11.5 mph 18.4 mph N/A   Clear
2:55 AM 41.0 °F 36.4 °F 19.4 °F 42% 30.01 in 10.0 mi North 6.9 mph 16.1 mph N/A   Clear
3:15 AM 41.0 °F 39.0 °F 19.4 °F 42% 30.03 in 10.0 mi North 3.5 mph - N/A   Clear
3:35 AM 39.2 °F 34.2 °F 17.6 °F 42% 30.04 in 10.0 mi North 6.9 mph 19.6 mph N/A   Clear
3:55 AM 39.2 °F 32.0 °F 14.0 °F 36% 30.05 in 10.0 mi North 11.5 mph 24.2 mph N/A   Clear
4:15 AM 39.2 °F 34.2 °F 15.8 °F 39% 30.06 in 10.0 mi North 6.9 mph 20.7 mph N/A   Clear
4:35 AM 37.4 °F 31.4 °F 19.4 °F 48% 30.08 in 10.0 mi NNE 8.1 mph 25.3 mph N/A   Clear
4:55 AM 33.8 °F 23.5 °F 17.6 °F 52% 30.11 in 10.0 mi NNW 16.1 mph 25.3 mph N/A   Clear
5:15 AM 33.8 °F 26.4 °F 14.0 °F 44% 30.13 in 10.0 mi North 9.2 mph 24.2 mph N/A   Clear
5:35 AM 32.0 °F 26.4 °F 10.4 °F 41% 30.15 in 10.0 mi North 5.8 mph 20.7 mph N/A   Clear
5:55 AM 32.0 °F 24.2 °F 8.6 °F 38% 30.17 in 10.0 mi NNW 9.2 mph 23.0 mph N/A   Clear
6:15 AM 32.0 °F 27.5 °F 6.8 °F 35% 30.19 in 10.0 mi NNW 4.6 mph - N/A   Clear
6:35 AM 32.0 °F 22.1 °F -0.4 °F 25% 30.20 in 10.0 mi North 13.8 mph 29.9 mph N/A   Clear
6:55 AM 30.2 °F 22.6 °F 1.4 °F 29% 30.21 in 10.0 mi North 8.1 mph 20.7 mph N/A   Clear
7:15 AM 30.2 °F 20.8 °F 1.4 °F 29% 30.24 in 10.0 mi NNW 11.5 mph 17.3 mph N/A   Clear
7:35 AM 30.2 °F 20.2 °F -0.4 °F 27% 30.25 in 10.0 mi NNW 12.7 mph 21.9 mph N/A   Clear
7:55 AM 30.2 °F 22.6 °F 1.4 °F 29% 30.26 in 10.0 mi NNW 8.1 mph 20.7 mph N/A   Clear
8:15 AM 28.4 °F 20.4 °F 1.4 °F 31% 30.27 in 10.0 mi North 8.1 mph 18.4 mph N/A   Clear
8:35 AM 28.4 °F 23.3 °F 1.4 °F 31% 30.29 in 10.0 mi North 4.6 mph - N/A   Clear
8:55 AM 28.4 °F 19.1 °F 1.4 °F 31% 30.30 in 10.0 mi NNE 10.4 mph - N/A   Clear
9:15 AM 28.4 °F 19.7 °F 1.4 °F 31% 30.31 in 10.0 mi NNE 9.2 mph 17.3 mph N/A   Partly Cloudy
9:35 AM 28.4 °F 19.7 °F 1.4 °F 31% 30.32 in 10.0 mi North 9.2 mph 18.4 mph N/A   Scattered Clouds
9:55 AM 28.4 °F 20.4 °F 1.4 °F 31% 30.35 in 10.0 mi NNE 8.1 mph 17.3 mph N/A   Mostly Cloudy
10:15 AM 28.4 °F 19.7 °F 1.4 °F 31% 30.35 in 10.0 mi NNE 9.2 mph 18.4 mph N/A   Scattered Clouds
10:35 AM 28.4 °F 21.2 °F -0.4 °F 29% 30.36 in 10.0 mi NNW 6.9 mph - N/A   Partly Cloudy
10:55 AM 28.4 °F 18.0 °F -0.4 °F 29% 30.37 in 10.0 mi NW 12.7 mph 17.3 mph N/A   Mostly Cloudy
11:15 AM 28.4 °F 21.2 °F -2.2 °F 27% 30.37 in 10.0 mi NNW 6.9 mph - N/A   Overcast
11:35 AM 28.4 °F 19.7 °F -4.0 °F 25% 30.37 in 10.0 mi NW 9.2 mph 18.4 mph N/A   Mostly Cloudy
11:55 AM 28.4 °F 19.7 °F -4.0 °F 25% 30.37 in 10.0 mi NNW 9.2 mph - N/A   Clear
12:15 PM 28.4 °F 20.4 °F -4.0 °F 25% 30.36 in 10.0 mi NNW 8.1 mph 17.3 mph N/A   Clear
12:35 PM 30.2 °F 22.6 °F -4.0 °F 23% 30.35 in 10.0 mi North 8.1 mph - N/A   Clear
12:55 PM 30.2 °F 20.2 °F -4.0 °F 23% 30.34 in 10.0 mi NW 12.7 mph 18.4 mph N/A   Clear
1:15 PM 28.4 °F 20.4 °F -5.8 °F 23% 30.34 in 10.0 mi NNW 8.1 mph 20.7 mph N/A   Clear
1:35 PM 28.4 °F 18.5 °F -5.8 °F 23% 30.34 in 10.0 mi NW 11.5 mph 16.1 mph N/A   Scattered Clouds
1:55 PM 28.4 °F 20.4 °F -5.8 °F 23% 30.32 in 10.0 mi NNE 8.1 mph - N/A   Mostly Cloudy
2:15 PM 28.4 °F 20.4 °F -7.6 °F 21% 30.33 in 10.0 mi North 8.1 mph 20.7 mph N/A   Overcast
2:35 PM 28.4 °F 21.2 °F -5.8 °F 23% 30.34 in 10.0 mi NNW 6.9 mph - N/A   Mostly Cloudy
2:55 PM 28.4 °F 20.4 °F -4.0 °F 25% 30.34 in 10.0 mi North 8.1 mph - N/A   Mostly Cloudy
3:15 PM 26.6 °F 20.0 °F -4.0 °F 26% 30.35 in 10.0 mi NNW 5.8 mph - N/A   Mostly Cloudy
3:35 PM 26.6 °F 18.2 °F -5.8 °F 24% 30.35 in 10.0 mi NNW 8.1 mph - N/A   Mostly Cloudy
3:55 PM 26.6 °F 18.2 °F -5.8 °F 24% 30.36 in 10.0 mi NNW 8.1 mph 17.3 mph N/A   Overcast
4:15 PM 26.6 °F 18.2 °F -5.8 °F 24% 30.36 in 10.0 mi NNW 8.1 mph - N/A   Overcast
4:35 PM 26.6 °F 20.0 °F -4.0 °F 26% 30.37 in 10.0 mi North 5.8 mph - N/A   Overcast
4:55 PM 26.6 °F 19.1 °F -4.0 °F 26% 30.38 in 10.0 mi NNW 6.9 mph - N/A   Overcast
5:15 PM 26.6 °F 20.0 °F -4.0 °F 26% 30.38 in 10.0 mi NNW 5.8 mph - N/A   Overcast
5:35 PM 26.6 °F 21.2 °F -4.0 °F 26% 30.38 in 10.0 mi NNE 4.6 mph - N/A   Overcast
5:55 PM 26.6 °F 21.2 °F -4.0 °F 26% 30.38 in 10.0 mi NNW 4.6 mph - N/A   Overcast
6:15 PM 26.6 °F 19.1 °F -4.0 °F 26% 30.39 in 10.0 mi NNW 6.9 mph - N/A   Overcast
6:35 PM 24.8 °F 17.9 °F -2.2 °F 31% 30.39 in 10.0 mi NNE 5.8 mph - N/A   Overcast
6:55 PM 24.8 °F 19.1 °F -4.0 °F 28% 30.39 in 10.0 mi NNW 4.6 mph - N/A   Overcast
7:15 PM 24.8 °F 19.1 °F -2.2 °F 31% 30.40 in 10.0 mi North 4.6 mph - N/A   Overcast
7:35 PM 24.8 °F 16.1 °F -4.0 °F 28% 30.39 in 10.0 mi North 8.1 mph - N/A   Overcast
7:55 PM 24.8 °F 17.9 °F -2.2 °F 31% 30.39 in 10.0 mi North 5.8 mph - N/A   Scattered Clouds
8:15 PM 24.8 °F 20.5 °F -0.4 °F 34% 30.39 in 10.0 mi NNE 3.5 mph - N/A   Clear
8:35 PM 24.8 °F 19.1 °F -0.4 °F 34% 30.40 in 10.0 mi NNE 4.6 mph - N/A   Clear
8:55 PM 24.8 °F 19.1 °F -0.4 °F 34% 30.40 in 10.0 mi NNE 4.6 mph - N/A   Clear
9:15 PM 24.8 °F 16.9 °F -0.4 °F 34% 30.41 in 10.0 mi NNE 6.9 mph - N/A   Clear
9:35 PM 24.8 °F - -2.2 °F 31% 30.41 in 10.0 mi Calm Calm - N/A   Clear
9:55 PM 23.0 °F 18.4 °F -4.0 °F 31% 30.42 in 10.0 mi North 3.5 mph - N/A   Clear
10:15 PM 23.0 °F 14.7 °F -4.0 °F 31% 30.43 in 10.0 mi NNE 6.9 mph - N/A   Partly Cloudy
10:35 PM 23.0 °F 18.4 °F -4.0 °F 31% 30.43 in 10.0 mi NNE 3.5 mph - N/A   Mostly Cloudy
10:55 PM 23.0 °F 14.7 °F -4.0 °F 31% 30.43 in 10.0 mi NNE 6.9 mph - N/A   Scattered Clouds
11:15 PM 23.0 °F 15.8 °F -4.0 °F 31% 30.43 in 10.0 mi NNE 5.8 mph - N/A   Clear
11:35 PM 23.0 °F 18.4 °F -4.0 °F 31% 30.43 in 10.0 mi NNE 3.5 mph - N/A   Partly Cloudy
11:55 PM 23.0 °F 17.0 °F -4.0 °F 31% 30.43 in 10.0 mi NE 4.6 mph - N/A   Mostly Cloudy